Flag for Switzerland Weather past 2 weeks in Lausanne, Vaud, Switzerland

Now
65 °F

Mild.


Feels Like: 65 °F
Forecast: 56 / 66 °F
Wind: 9 mph from North

Location: Aigle

Current Time: Sep 1, 2015 at 8:13:36 PM

Latest Report: Sep 1, 2015 at 7:00 PM


Visibility: N/A

Pressure: 30.02 "Hg

Humidity: 80%

Dew point: 59 °F

Location of LausanneLocation

Historic Weather in Lausanne — Graph

°F

Lausanne temperature yesterday

Maximum temperature yesterday: 82 °F (at 5:00 PM)
Minimum temperature yesterday: 61 °F (at 5:00 AM)
Average temperature yesterday: 72 °F

Past Weeks' High & Low Weather Summary

 TemperatureHumidityPressure
High83 °F (Aug 28, 5:00 PM)98% (Aug 18, 4:00 AM)30.24 "Hg (Aug 18, 4:00 AM)
Low51 °F (Aug 20, 7:00 AM)37% (Aug 20, 6:00 PM)29.70 "Hg (Aug 24, 5:00 AM)
Average66 °F76%30.02 "Hg
* Reported Aug 17 6:00 PM — Sep 1 6:00 PM, Lausanne, Weather by CustomWeather, © 2015

Note: Actual official high and low records may vary slightly from our data, if they occured in-between our weather recording intervals... More about our weather records

Advertising

Lausanne weather history for previous 24 hours

 ConditionsComfort  
Time TempWeatherWind HumidityBarometerVisibility
6:00 PM
Tue, Sep 1
65 °FMild.10 mph85%30.01 "HgN/A
5:00 PM68 °FOvercast.13 mph74%29.98 "Hg6 mi
4:00 PM68 °FMild.12 mph76%29.96 "HgN/A
3:00 PM69 °FMild.15 mph71%29.94 "HgN/A
2:00 PM72 °FOvercast.9 mph67%29.90 "Hg14 mi
1:00 PM73 °FMild.7 mph64%29.90 "HgN/A
12:00 PM74 °FMild.1 mph67%29.89 "HgN/A
11:00 AM73 °FOvercast.2 mph70%29.90 "Hg14 mi
10:00 AM71 °FMild.3 mph70%29.88 "HgN/A
9:00 AM71 °FMild.8 mph73%29.86 "HgN/A
8:00 AM67 °FOvercast.1 mph74%29.84 "Hg14 mi
7:00 AM66 °FMild.6 mph78%29.83 "HgN/A
6:00 AM62 °FCool.2 mph95%29.87 "HgN/A
4:00 AM65 °FMild.3 mph85%29.90 "HgN/A
3:00 AM65 °FMild.1 mph87%29.90 "HgN/A
2:00 AM63 °FMild.3 mph92%29.93 "HgN/A
1:00 AM65 °FMild.2 mph81%29.92 "HgN/A
12:00 AM64 °FMild.3 mph88%29.92 "HgN/A
10:00 PM
Mon, Aug 31
66 °FMild.3 mph90%29.92 "HgN/A
9:00 PM68 °FMild.No wind88%29.92 "HgN/A
8:00 PM72 °FPassing clouds.1 mph79%29.91 "Hg25 mi
Weather by CustomWeather, © 2015

See weather overviewHow to use our weather pages